Regional Weather Roundup
Issued by NWS

Home | Current Version | Previous Version | Graphics & Text | Print | Product List | Glossary On
Versions: 1 2 3 4 5 6 7 8 9 10 11 12 13 14 15 16 17 18 19 20 21 22 23 24 25 26 27 28 29 30 31 32 33 34 35 36 37 38 39 40 41 42 43 44 45 46 47 48 49 50
000
ASUS43 KIND 251559
RWRIN

WEATHER ROUNDUP FOR INDIANA
NATIONAL WEATHER SERVICE INDIANAPOLIS IN
1200 PM EDT MON MAY 25 2015

NOTE: "FAIR" INDICATES FEW OR NO CLOUDS BELOW 12,000 FEET WITH NO
SIGNIFICANT WEATHER AND/OR OBSTRUCTIONS TO VISIBILITY.

* - STATION DOES NOT REPORT WEATHER SUCH AS PRECIPITATION OR FOG.

+ - STATION NOT QUALITY CONTROLLED BY THE NATIONAL WEATHER SERVICE.
    USE DATA WITH CAUTION...ESPECIALLY DEWPOINT AND RELATIVE
    HUMIDITY OBSERVATIONS.

INZ001>003-010>013-019-020-251700-
NORTHWEST INDIANA

CITY           SKY/WX    TMP DP  RH WIND       PRES   REMARKS
GARY /AIRPORT/ CLOUDY    72  68  88 SW14G28   29.90S
MONTICELLO +   CLOUDY    74  65  73 SW23G30   29.97S
RENSSELAER +   PTSUNNY   77  64  65 S32G40    29.94S

$$

LMZ046-743>745-251700-
SOUTHERN LAKE MICHIGAN

STATION/POSITION TIME  TEMP    WIND        PRES    WAVE
                       AIR SEA DIR/SP/G            HT
                 (UTC) (F)     (DEG/KT/KT) (MB)    (FT)
BURNS HARBOR     1500   74     220/ 18/ 33 1012.5R
MICHIGAN CITY    1500   73     180/ 23/ 29   N/A
5NW MICH CITY    1500   68 52  220/ 17/ 27   N/A     3

$$

INZ004-005-014>016-021>024-251700-
NORTH CENTRAL INDIANA

CITY           SKY/WX    TMP DP  RH WIND       PRES   REMARKS
ELKHART        PTSUNNY   73  64  73 S17G28    29.95S
GOSHEN         PTSUNNY   75  65  70 S31G39    29.96S
SOUTH BEND     PTSUNNY   76  66  71 S23G32    29.93S
WARSAW +       CLOUDY    72  64  78 S12G26    29.99R

$$

INZ006>009-017-018-025>027-251700-
NORTHEAST INDIANA

CITY           SKY/WX    TMP DP  RH WIND       PRES   REMARKS
ANGOLA *+        N/A     70  66  88 SW18      30.00R
FORT WAYNE     CLOUDY    75  64  68 SW28G36   30.02S

$$

INZ028-029-035-036-043>045-051>053-251700-
WEST CENTRAL INDIANA

CITY           SKY/WX    TMP DP  RH WIND       PRES   REMARKS
CRAWFORDSVL +  CLOUDY    69  60  73 S21G26    30.05R
GREENCASTLE +  CLOUDY    66  63  88 S5        30.08R FOG
LAFAYETTE      CLOUDY    74  63  68 SW15G28   29.99S
TERRE HAUTE    PTSUNNY   73  67  81 S16G25    30.06R

$$

INZ030>032-037>040-046>048-054>057-064-065-251700-
CENTRAL INDIANA

CITY           SKY/WX    TMP DP  RH WIND       PRES   REMARKS
GREENWOOD *+   CLOUDY    72  63  73 SW20G25   30.09R
INDIANAPOLIS   CLOUDY    71  63  75 S18       30.06R
-EAGLE CREEK   CLOUDY    70  64  81 S10G20    30.06R
KOKOMO *+      CLOUDY    72  64  78 SW21G29   30.03S
MT COMFORT *+  CLOUDY    72  61  68 S16G24    30.08R
SHELBYVILLE    CLOUDY    72  64  76 S18       30.09R

$$

INZ033-034-041-042-049-050-058-059-251700-
EAST CENTRAL INDIANA

CITY           SKY/WX    TMP DP  RH WIND       PRES   REMARKS
MUNCIE         CLOUDY    73  63  70 SW14G24   30.06R

$$

INZ060-061-067>069-081>083-085>088-251700-
SOUTHWEST INDIANA

CITY           SKY/WX    TMP DP  RH WIND       PRES   REMARKS
EVANSVILLE     PTSUNNY   74  66  76 S15       30.11R
HUNTINGBURG *+ CLOUDY    72  64  78 S15       30.12R

$$

INZ062-063-066-070>080-084-089>092-251700-
SOUTH CENTRAL AND SOUTHEAST INDIANA

CITY           SKY/WX    TMP DP  RH WIND       PRES   REMARKS
BLOOMINGTON    CLOUDY    71  65  81 SW14      30.10R
MADISON *+     CLOUDY    70  63  78 S17G23    30.16S
SEYMOUR +      CLOUDY    72  64  78 S16G25    30.12R

$$




USA.gov is the U.S. government's official web portal to all federal, state and local government web resources and services.